EHI
0 0 0 0 0 1 1 0 0 0 0 0 0 0 0 0 0 0 0 0 0 0 0 0 0 0 0 0 0 0 0 0 0 0 0 0 0 0 0 0 0 0 0
0 0 1 1 1 1 1 0 0 0 0 0 0 0 0 0 0 0 0 0 0 0 0 0 0 0 0 0 0 0 0 0 0 0 0 0 0 0 0 0 0 0 0
0 1 2 2 2 1 1 0 0 0 0 0 0 0 0 0 0 0 0 0 0 0 0 0 0 0 0 0 0 0 0 0 0 0 0 0 0 0 0 0 0 0 0
1 1 2 2 2 1 0 0 0 0 0 0 0 0 0 0 0 0 0 0 0 0 0 0 0 0 0 0 0 0 0 0 0 0 0 0 0 0 0 0 0 0 0
0 1 1 1 1 0 0 0 0 0 0 0 0 0 0 0 0 0 0 0 0 0 0 0 0 0 0 0 0 0 0 0 0 0 0 0 0 0 0 0 0 0 0
0 0 0 0 0 0 0 0 0 0 0 0 0 0 0 0 0 0 0 0 0 0 0 0 0 0 0 0 0 0 0 0 0 0 0 0 0 0 0 0 0 0 0
0 0 0 0 0 0 0 0 0 0 0 0 0 0 0 0 0 0 0 0 0 0 0 0 0 0 0 0 0 0 0 0 0 0 0 0 0 0 0 0 0 0 0
0 0 0 0 0 0 0 0 0 0 0 0 0 0 0 0 0 0 0 0 0 0 0 0 0 0 0 0 0 0 0 0 0 0 0 0 0 0 0 0 0 0 0
0 0 0 0 0 0 0 0 0 0 0 0 0 0 0 0 0 0 0 0 0 0 0 0 0 0 0 0 0 0 0 0 0 0 0 0 0 0 0 0 0 0 0
0 0 0 0 0 0 0 0 0 0 0 0 0 0 0 0 0 0 0 0 0 0 0 0 0 0 0 0 0 0 0 0 0 0 0 0 0 0 0 0 0 0 0
0 0 0 0 0 0 0 0 0 0 0 0 0 0 0 0 0 0 0 0 0 0 0 0 0 0 0 0 0 0 0 0 0 0 0 0 0 0 0 0 0 0 0
0 0 0 0 0 0 0 0 0 0 0 0 0 0 0 0 0 0 0 0 0 0 0 0 0 0 0 0 0 0 0 0 0 0 0 0 0 0 0 0 0 0 0
0 0 0 0 0 0 0 0 0 0 0 0 0 0 0 0 0 0 0 0 0 0 0 0 0 0 0 0 0 0 0 0 0 0 0 0 0 0 0 0 0 0 0
0 0 0 0 0 0 0 0 0 0 0 0 0 0 0 0 0 0 0 0 0 0 0 0 0 0 0 0 0 0 0 0 0 0 0 0 0 0 0 0 0 0 0
0 0 0 0 0 0 0 0 0 0 0 0 0 0 0 0 0 0 0 0 0 0 0 0 0 0 0 0 0 0 0 0 0 0 0 0 0 0 0 0 0 0 0
0 0 0 0 0 0 0 0 0 0 0 0 0 0 0 0 0 0 0 0 0 0 0 0 0 0 0 0 0 0 0 0 0 0 0 0 0 0 0 0 0 0 0
0 0 0 0 0 0 0 0 0 0 0 0 0 0 0 0 0 0 0 0 0 0 0 0 0 0 0 0 0 0 0 0 0 0 0 0 0 0 0 0 0 0 0
0 0 0 0 0 0 0 0 0 0 0 0 0 0 0 0 0 0 0 0 0 0 0 0 0 0 0 0 0 0 0 0 0 0 0 0 0 0 0 0 0 0 0
0 0 0 0 0 0 0 0 0 0 0 0 0 0 0 0 0 0 0 0 0 0 0 0 0 0 0 0 0 0 0 0 0 0 0 0 0 0 0 0 0 0 0
0 0 0 0 0 0 0 0 0 0 0 0 0 0 0 0 0 0 0 0 0 0 0 0 0 0 0 0 0 0 0 0 0 0 0 0 0 0 0 0 0 0 0
0 0 0 0 0 0 0 0 0 0 0 0 0 0 0 0 0 0 0 0 0 0 0 0 0 0 0 0 0 0 0 0 0 0 0 0 0 0 0 0 0 0 0
0 0 0 0 0 0 0 0 0 0 0 0 0 0 0 0 0 0 0 0 0 0 0 0 0 0 0 0 0 0 0 0 0 0 0 0 0 0 0 0 0 0 0
0 0 0 0 0 0 0 0 0 0 0 0 0 0 0 0 0 0 0 0 0 0 0 0 0 0 0 0 0 0 0 0 0 0 0 0 0 0 0 0 0 0 0
0 0 0 0 0 0 0 0 0 0 0 0 0 0 0 0 0 0 0 0 0 0 0 0 0 0 0 0 0 0 0 0 0 0 0 0 0 0 0 0 0 0 0
0 0 0 0 0 0 0 0 0 0 0 0 0 0 0 0 0 0 0 0 0 0 0 0 0 0 0 0 0 0 0 0 0 0 0 0 0 0 0 0 0 0 0
0 0 0 0 0 0 0 0 0 0 0 0 0 0 0 0 0 0 0 0 0 0 0 0 0 0 0 0 0 0 0 0 0 0 0 0 0 0 0 0 0 0 0
Wind_Speed
4 4 4 4 4 4 4 4 3 3 2 2 2 2 1 1 1 1 1 1 2 1 1 1 1 1 1 0 0 1 1 1 2 1 1 1 1 1 1 1 2 1 2
4 5 4 4 5 5 4 4 3 3 3 2 2 2 1 1 1 1 1 1 1 1 1 1 1 1 1 0 0 1 1 1 2 2 1 1 1 1 1 1 1 1 1
5 5 5 4 4 4 4 4 3 3 3 3 2 2 2 2 2 2 2 2 2 2 2 1 1 1 1 0 1 0 0 0 1 2 2 1 1 1 1 1 1 1 1
5 5 5 4 4 4 4 4 3 3 3 3 3 2 3 2 2 2 2 2 3 3 3 2 2 2 1 1 1 1 0 1 1 2 2 1 1 1 1 0 1 1 1
5 5 5 5 5 4 4 4 3 3 3 3 3 2 2 2 2 2 2 3 3 3 3 3 3 4 4 2 2 1 1 1 1 1 1 1 1 1 1 0 0 1 1
5 5 5 5 5 4 4 4 4 3 3 3 2 2 2 2 3 3 3 2 3 3 3 3 3 3 4 4 4 4 3 2 2 1 1 1 1 1 1 1 1 1 2
5 5 5 5 5 4 4 4 3 3 3 3 2 2 2 3 3 3 4 2 2 2 2 2 2 2 3 2 3 5 5 5 3 2 2 1 1 1 2 1 0 0 2
5 5 5 5 5 4 4 4 3 3 3 2 2 2 2 3 4 4 4 2 2 2 2 2 2 2 2 2 2 2 2 2 2 2 2 1 2 2 2 2 1 0 2
5 5 6 6 6 5 5 4 3 3 2 2 2 2 2 3 4 4 4 1 2 1 1 1 2 2 3 3 2 1 1 1 2 3 3 2 1 1 1 2 1 1 1
5 5 5 5 5 5 5 4 3 3 3 3 2 2 3 3 5 5 4 1 2 1 1 1 2 2 3 3 2 1 1 0 1 1 1 1 1 0 0 2 2 1 1
4 4 5 5 5 5 4 4 4 4 4 3 3 2 2 3 5 6 5 2 2 2 1 1 2 4 3 3 2 1 2 1 1 1 1 0 0 0 0 1 1 2 2
4 4 4 4 4 4 4 4 4 4 4 3 3 2 2 3 4 5 7 6 4 2 2 1 2 4 4 4 2 3 3 1 0 1 1 1 1 1 1 0 0 0 2
3 3 3 4 4 4 5 5 4 4 4 4 3 3 3 2 4 8 8 8 7 3 2 4 4 5 4 3 4 5 3 1 1 1 2 2 2 2 1 0 1 2 3
3 3 4 4 4 4 4 4 4 5 4 4 4 4 3 3 3 3 3 4 6 4 3 4 5 5 4 4 4 3 2 3 2 3 2 2 1 1 1 2 2 2 3
2 3 3 4 4 4 4 4 5 5 5 5 5 4 4 4 6 9 5 4 4 4 3 2 2 2 2 2 2 3 3 3 3 2 2 2 2 2 3 2 2 2 3
2 3 3 3 3 3 3 3 5 5 7 9 7 6 5 7 8 10 11 10 10 9 5 3 3 3 4 4 4 4 3 4 4 3 3 3 3 3 3 3 3 3 5
2 2 2 3 3 3 4 4 3 4 7 8 10 10 9 9 9 10 10 10 11 10 5 4 4 4 4 4 4 4 4 4 4 4 4 4 4 4 4 4 4 5 6
2 2 2 2 3 3 3 3 3 4 3 3 7 11 11 11 11 10 11 8 6 7 4 5 5 5 5 5 5 4 4 4 4 4 4 4 4 4 5 5 5 6 6
2 1 1 2 2 3 3 3 3 4 4 3 2 5 10 11 11 11 10 5 5 5 5 6 5 5 5 5 5 5 5 5 5 5 5 5 5 5 6 6 6 10 8
2 2 2 2 2 2 3 3 3 4 4 4 4 4 4 4 4 5 6 5 6 6 6 6 6 6 6 5 5 5 5 5 6 6 6 6 6 6 7 8 7 7 7
2 2 3 2 2 3 3 3 3 3 4 4 4 5 7 5 5 6 5 6 6 6 6 6 6 6 6 5 5 6 7 6 6 6 6 6 6 6 7 7 7 7 7
2 2 2 3 2 3 3 3 3 4 4 4 4 4 8 5 4 5 5 6 6 5 5 5 5 5 6 6 6 6 7 7 7 6 7 6 6 7 7 7 7 7 7
2 3 3 3 2 4 4 3 3 4 4 4 4 3 4 4 4 4 5 4 4 4 4 5 5 5 5 6 6 6 7 7 7 7 7 7 7 7 7 8 9 8 9
3 3 3 3 2 3 3 3 3 4 4 4 4 4 4 4 5 5 4 4 4 4 4 4 5 7 8 6 5 6 6 7 7 7 9 8 8 7 7 8 8 10 9
3 3 3 3 3 3 3 3 3 4 4 4 4 4 4 4 4 4 4 4 4 4 5 5 4 5 7 8 7 7 10 13 12 8 7 8 9 9 8 9 9 9 10
3 3 3 3 3 3 3 3 4 4 4 4 4 4 4 4 4 4 4 4 4 4 5 4 6 6 7 7 8 11 14 14 14 15 9 7 9 9 9 9 11 10 10
Wind_Direction
122 115 112 108 106 105 106 109 111 109 110 107 106 103 113 163 182 185 200 183 182 175 166 166 175 139 159 193 206 211 225 216 223 138 98 104 107 92 33 30 45 46 32
122 114 111 108 105 104 104 101 95 93 91 91 92 107 118 92 65 118 129 116 143 159 159 150 148 120 121 98 152 178 200 206 183 184 140 126 106 103 68 39 27 40 41
122 120 117 115 112 111 110 104 97 95 94 90 88 95 87 73 63 64 84 94 95 91 88 100 101 115 120 103 108 110 252 126 121 143 136 116 107 113 59 8 6 1 347
128 128 125 120 116 112 109 104 99 98 99 95 88 82 77 70 69 70 82 91 91 81 72 73 69 87 108 131 113 83 60 79 91 109 118 123 123 125 110 63 329 325 318
129 127 125 118 114 112 110 109 107 103 101 100 95 89 85 79 79 88 98 107 107 98 84 78 72 75 72 75 83 76 79 101 108 114 126 113 135 130 198 180 1 322 315
134 135 130 127 125 126 126 124 121 119 113 108 105 102 97 94 103 111 112 109 119 123 120 108 100 83 82 76 76 75 81 107 132 135 150 166 188 171 126 101 75 45 306
141 142 140 139 139 141 139 135 137 134 123 117 116 114 110 112 124 124 120 117 125 127 130 126 117 109 90 80 74 67 60 60 77 133 147 179 163 149 122 98 100 203 239
151 151 149 148 148 147 145 149 145 136 136 137 132 132 129 133 139 137 131 111 112 119 124 130 131 125 113 102 89 71 58 42 50 65 106 100 98 103 132 158 181 262 287
161 162 159 157 156 157 159 157 149 142 145 147 144 152 151 151 154 153 147 128 133 137 126 122 127 143 160 140 114 102 70 33 63 82 90 94 92 98 115 97 88 60 310
166 160 155 157 161 164 164 157 150 151 159 156 160 172 171 170 176 177 173 160 161 164 158 169 179 175 180 169 142 148 163 189 93 52 30 8 12 171 123 147 164 175 222
136 139 147 153 156 157 156 154 153 154 155 163 174 185 183 183 186 191 193 174 180 181 187 200 203 196 201 202 193 184 210 191 169 198 246 247 207 130 98 125 151 173 200
127 139 148 150 154 153 153 157 158 158 164 178 184 195 198 193 192 201 205 203 195 182 194 198 201 205 217 218 220 223 225 221 168 215 233 233 224 219 200 147 137 215 226
135 151 158 158 159 160 164 167 167 172 180 189 192 203 208 196 204 212 215 213 212 200 193 203 211 219 232 231 235 237 231 207 208 227 238 240 218 192 170 195 277 270 269
162 172 173 169 171 175 175 175 180 188 193 196 199 206 206 202 201 202 208 215 213 213 208 219 228 235 231 230 240 241 215 209 210 220 230 225 193 189 215 220 243 267 281
178 187 184 181 180 185 188 192 197 202 198 198 204 199 200 212 214 204 194 198 192 197 183 186 202 212 218 222 223 220 215 221 233 221 221 224 224 224 233 226 231 242 253
195 195 190 186 187 186 190 205 213 212 214 216 214 208 214 217 213 212 213 215 215 210 200 203 215 219 221 223 224 224 219 220 219 218 221 223 228 234 245 241 236 242 257
222 210 197 194 195 197 194 196 210 224 227 230 229 227 225 223 221 218 219 220 222 218 215 213 221 224 226 224 223 222 223 220 211 213 221 225 230 237 242 246 245 249 255
240 223 215 210 207 206 204 203 201 205 218 234 232 231 231 229 226 224 223 217 221 219 215 219 225 226 224 225 225 226 227 222 216 220 222 225 226 232 240 244 244 246 254
254 235 220 217 219 216 209 208 211 215 222 226 221 230 230 231 231 230 224 216 214 219 219 223 225 225 225 225 225 223 223 225 224 221 226 227 226 229 238 242 245 252 254
262 253 240 225 222 226 219 215 219 222 226 226 227 224 208 207 217 221 216 214 221 224 222 223 224 224 224 224 223 224 227 228 227 228 230 230 227 228 237 241 243 247 249
274 259 242 235 226 224 227 226 226 227 232 236 237 230 218 214 221 222 221 221 224 227 226 226 225 223 223 222 222 225 228 231 230 230 232 232 230 233 237 240 243 246 250
271 261 250 242 238 234 236 231 228 231 236 242 248 246 242 232 228 232 230 231 229 227 225 224 227 225 222 221 221 225 230 233 232 231 232 233 234 236 238 241 244 246 247
269 262 259 251 244 250 249 238 236 239 242 244 245 238 235 233 235 238 240 241 238 235 229 225 231 233 228 225 221 222 229 233 231 228 232 236 236 237 237 240 242 246 249
272 264 261 258 249 244 247 246 244 245 245 245 244 242 239 237 240 243 243 242 242 241 236 232 235 239 239 236 231 229 232 236 232 230 228 234 238 240 240 242 244 246 249
276 274 268 260 254 252 251 252 251 250 253 253 251 251 249 247 248 250 248 245 244 244 243 241 243 245 247 246 243 242 247 249 248 244 236 234 238 238 241 245 247 249 249
272 272 274 271 265 262 259 257 256 257 257 260 259 256 256 255 254 253 251 250 251 251 250 245 245 249 254 254 253 255 260 260 259 257 249 243 241 242 240 245 246 248 251